Lid_Strength_Index
-1 -1 -1 -0 0 0 1 1 2 3 3 3 3 3 3 4 4 7 9 7 4 1 0 3 3 3 2 5 4 4 11 13 12 11 10 7 8 5 4 6 5 4 5 4 2
-1 -1 -1 -0 -0 0 1 1 1 3 3 4 4 4 4 4 7 9 5 3 1 1 3 4 5 4 6 6 6 8 12 11 8 8 9 7 7 7 7 7 7 6 4 3 3
-1 -1 -1 -0 -0 1 1 2 2 2 3 4 3 4 4 5 11 10 2 1 2 1 3 3 3 4 7 6 7 8 12 8 8 7 6 7 7 6 8 9 7 7 6 4 4
-1 -1 -1 -0 -0 0 1 2 2 2 2 4 3 4 5 7 17 7 2 3 2 2 3 4 4 7 8 9 7 10 8 8 7 6 7 8 6 7 7 7 4 4 4 4 5
-1 -2 -1 -0 0 1 1 2 3 2 3 3 3 4 7 10 10 5 2 3 1 2 4 5 6 7 9 8 8 9 8 7 6 6 7 7 8 7 7 5 4 4 4 5 4
-1 -1 -1 0 0 1 2 2 3 3 4 3 3 3 8 15 7 5 4 3 4 2 3 4 5 5 7 8 9 7 8 8 7 7 7 8 8 7 6 5 5 5 5 5 4
-0 -1 -1 0 1 1 2 3 3 4 4 4 2 4 9 12 6 5 4 4 3 2 4 3 3 5 6 9 6 7 10 9 8 8 8 7 10 10 6 5 6 6 5 5 4
0 -0 -1 -0 1 2 2 3 3 4 4 3 2 6 12 6 5 5 4 4 2 1 2 2 2 5 7 6 8 10 10 14 9 8 7 8 13 9 6 7 7 6 6 5 5
1 0 0 -0 1 2 2 3 4 4 4 3 5 9 12 4 5 4 4 4 2 2 2 2 3 6 7 11 13 12 16 14 13 8 9 10 12 9 6 7 8 7 6 6 5
1 1 0 0 1 2 3 4 3 4 5 4 6 11 9 8 5 3 3 2 4 4 5 6 7 10 10 12 18 16 15 14 14 11 10 11 12 9 7 7 8 7 7 6 6
1 1 0 0 1 2 4 6 8 11 10 10 12 11 8 4 3 3 2 3 4 6 10 8 12 14 12 11 12 12 13 14 12 10 11 12 12 10 8 8 8 7 7 7 6
1 1 1 0 1 2 5 9 8 9 13 9 9 8 6 4 6 4 2 7 7 11 9 11 14 10 9 10 12 12 14 14 12 10 11 12 12 10 9 8 8 8 8 8 7
1 0 1 0 1 3 6 7 6 8 12 11 8 7 7 4 7 6 4 6 9 11 11 13 11 9 10 13 13 12 14 14 14 12 11 12 14 12 9 8 7 7 7 7 7
-0 0 0 0 4 5 7 6 6 9 17 14 10 7 5 5 8 4 3 6 8 11 11 11 9 10 11 12 12 15 11 11 13 14 17 12 19 13 11 10 9 8 7 7 7
-1 -1 -0 0 5 7 5 5 7 10 23 14 10 5 5 7 7 7 3 6 10 10 10 13 11 12 13 12 10 13 10 11 12 14 15 15 17 14 11 12 10 8 8 7 6
-1 -1 -0 2 4 4 4 7 10 17 24 17 9 10 9 8 8 6 7 5 6 10 10 11 8 9 11 9 10 9 11 12 12 14 19 16 16 16 14 13 11 9 9 8 8
-1 -1 -0 2 6 4 6 10 17 22 16 15 12 10 10 11 10 9 10 11 12 15 15 12 11 9 10 12 10 11 14 19 20 20 20 15 16 16 14 14 13 11 12 11 11
-1 -1 -0 2 3 5 8 13 21 18 18 12 11 11 13 10 11 11 11 13 10 11 14 18 17 12 9 11 13 13 13 18 22 21 20 14 17 16 13 12 11 11 11 11 10
-1 1 3 3 3 6 11 17 19 17 13 12 11 14 14 12 11 12 12 12 10 10 15 16 16 10 9 9 10 12 15 13 16 16 19 16 15 13 12 12 12 12 11 12 11
3 4 5 3 5 8 12 16 15 13 11 11 14 14 16 14 13 13 13 10 11 9 9 12 17 11 10 9 10 11 11 16 15 21 22 18 17 17 14 13 13 13 12 12 11
4 8 5 4 6 10 16 16 12 10 10 12 14 15 15 14 13 14 14 10 10 10 10 12 13 14 11 13 14 13 14 14 15 16 19 20 18 14 14 13 13 13 12 12 12
6 12 6 6 12 12 15 13 8 9 9 10 11 12 14 14 14 14 14 12 9 9 13 11 13 16 15 11 10 11 13 15 16 17 18 18 18 13 13 12 12 12 12 11 11
10 10 6 7 15 14 12 11 9 10 10 10 11 11 12 13 14 13 11 9 9 10 12 12 15 19 16 14 12 13 12 13 15 16 18 18 17 12 12 12 11 11 12 11 11
10 14 11 9 11 13 11 12 12 8 9 9 10 10 12 13 12 13 13 9 9 9 7 10 15 16 18 16 13 14 13 13 14 17 16 17 16 14 13 12 12 12 12 12 12
10 12 11 15 13 13 10 11 12 12 9 9 11 11 12 14 14 14 12 11 10 9 10 12 16 16 15 14 12 13 13 13 15 14 16 15 15 13 12 12 11 12 12 12 12
11 12 11 13 13 11 10 13 11 11 11 12 11 11 12 13 13 14 11 12 13 11 12 12 17 15 17 14 14 14 13 13 13 13 14 14 14 12 11 12 12 12 12 13 12
9 9 11 12 12 12 11 11 10 10 9 9 10 11 12 12 11 11 10 11 11 12 13 14 15 18 18 16 15 17 15 13 13 13 13 14 13 12 12 12 12 13 13 13 12